[[{"header":{"parameterUnit":"m.s-1","parameterCategory":2,"la1":30.2991,"la2":30.254,"lo1":-89.0895,"lo2":-89.0444,"dy":0.0017,"dx":0.0017,"nx":28,"ny":28,"refTime":"2024-03-30T09:00:00:Z","depth":"0","parameterNumber":2,"parameterNumberName":"U-component_of_CURRENTS"},"data":[0,0,0,0,0,0,0,0,0,0,0,0,0,0,0,0,0,0,0,0,0,0,0,0,0,0,0,0,0,0,0,0,0,0,0,0,0,0,0,0,0,0,0,0,0,0,0,0,0,0,0,0,0,0,0,0,0,0,0.2558,0.2558,0,0.2476,0.2475,0.2473,0.2401,0.2401,0.24,0.2399,0.2225,0.2221,0.2217,0,0,0,0,0,0,0,0,0,0,0,0,0,0.2656,0.2654,0.2558,0.2557,0.2557,0.2476,0.2475,0.2473,0.2401,0.24,0.24,0.2399,0.2226,0.2222,0.2217,0,0,0,0,0,0,0,0,0,0,0,0,0,0.2595,0.2654,0.2558,0.2513,0.2509,0.2476,0.2474,0.2473,0.2401,0.24,0.24,0.2399,0.2228,0.2222,0.2216,0.2195,0,0,0.2197,0.2194,0,0,0,0,0,0,0,0,0.2598,0.2591,0.2521,0.2516,0.2511,0.245,0.2445,0.2376,0.2402,0.2439,0.2399,0.2398,0.2294,0.2283,0.2266,0.2186,0.2179,0.2196,0.2193,0.219,0.2188,0,0,0,0,0,0,0,0.2603,0.2594,0.2523,0.252,0.2514,0.2498,0.2488,0.2432,0.2368,0.2436,0.2431,0.2427,0.2291,0.2272,0.2261,0.2176,0.2197,0.2191,0.2187,0.2185,0.2084,0.2085,0,0,0,0,0,0,0.2619,0.2598,0.2525,0.252,0.2557,0.2497,0.2486,0.2468,0.2371,0.2357,0.2428,0.2424,0.2283,0.2269,0.2255,0.2213,0.219,0.2184,0.2181,0.2083,0.2084,0.2085,0,0,0,0,0,0,0.2622,0.2613,0.2529,0.2561,0.2549,0.2497,0.2477,0.2467,0.2446,0.2366,0.235,0.2417,0.2282,0.2264,0.2205,0.2205,0.2182,0.2176,0.2082,0.2083,0.2085,0.2135,0,0,0,0,0,0,0.2624,0.2614,0.2611,0.2561,0.2548,0.2505,0.2478,0.2466,0.2447,0.2441,0.2352,0.2335,0.228,0.2215,0.2199,0.2197,0.2171,0.208,0.2082,0.2084,0.2132,0.2138,0.2143,0,0,0,0,0,0.2628,0.2609,0.2611,0.2603,0.2543,0.2505,0.2496,0.2455,0.2447,0.2434,0.2382,0.2338,0.2217,0.221,0.2191,0.2187,0.2079,0.2082,0.2084,0.2129,0.2137,0.2143,0,0,0,0,0,0,0.2625,0.2599,0.26,0.2568,0.2546,0.2494,0.2474,0.2462,0.2413,0.2403,0.2336,0.2315,0.2271,0.2229,0.2224,0.217,0.2147,0.2145,0.2188,0.2194,0.2199,0.2221,0.2166,0,0,0,0,0,0.2635,0.2622,0.2596,0.2569,0.2561,0.2528,0.251,0.2487,0.244,0.2418,0.2366,0.2314,0.2268,0.223,0.2184,0.2141,0.2142,0.2134,0.214,0.2145,0.2153,0.2177,0.2185,0.2093,0.2093,0.2093,0,0,0.2623,0.261,0.26,0.2572,0.2547,0.2525,0.2512,0.2482,0.2463,0.2405,0.236,0.2328,0.2265,0.2222,0.2199,0.2181,0.2172,0.2148,0.2152,0.2158,0.218,0.2189,0.2197,0.2094,0.2094,0.2094,0,0,0.2588,0.2587,0.2567,0.2556,0.2535,0.252,0.2518,0.2482,0.2465,0.2431,0.2393,0.2373,0.2288,0.2256,0.2225,0.2238,0.2208,0.222,0.2248,0.2271,0.2279,0.2286,0.2299,0.2307,0.2214,0.2214,0.2214,0,0.2571,0.2544,0.2553,0.2532,0.2515,0.2521,0.249,0.2482,0.2434,0.242,0.242,0.2352,0.231,0.2265,0.2278,0.2249,0.2254,0.2222,0.2279,0.2286,0.2292,0.2304,0.2312,0.2217,0.2216,0.2216,0.2216,0,0.2524,0.2507,0.249,0.2475,0.2467,0.2437,0.2439,0.2434,0.2434,0.2424,0.2403,0.2377,0.2335,0.2331,0.2303,0.2319,0.2305,0.229,0.2262,0.2304,0.2314,0.2321,0.2221,0.222,0.2219,0.2218,0,0,0.2433,0.2454,0.244,0.2431,0.2431,0.2407,0.2407,0.2389,0.2381,0.2388,0.2376,0.2356,0.2371,0.2343,0.2325,0.2355,0.2415,0.2346,0.2346,0.2361,0.2462,0.2388,0.2388,0.2408,0.241,0.2411,0.2451,0,0.2374,0.2343,0.2367,0.2323,0.2301,0.2328,0.2322,0.2323,0.2337,0.2339,0.2361,0.2348,0.2364,0.2358,0.2395,0.2406,0.2437,0.2405,0.2418,0.2419,0.2348,0.2395,0.226,0.2279,0.2458,0.2459,0.246,0,0.2289,0.2288,0.2251,0.225,0.2241,0.2231,0.2226,0.2225,0.2257,0.2272,0.2302,0.2323,0.2368,0.2388,0.2455,0.2432,0.2458,0.248,0.2482,0.24,0.2358,0.2265,0.2285,0.2237,0.2471,0.247,0.2469,0,0.2196,0.2183,0.2157,0.2154,0.2172,0.2161,0.2171,0.2196,0.2198,0.2246,0.2267,0.2316,0.2346,0.2408,0.2472,0.2465,0.2551,0.2536,0.2493,0.2487,0.2369,0.2349,0.2342,0.2592,0.2592,0.2592,0.2592,0,0.2102,0.2067,0.2117,0.2096,0.2064,0.2101,0.2079,0.2101,0.2145,0.2161,0.2235,0.2266,0.236,0.2419,0.2475,0.2508,0.2552,0.2511,0.2498,0.2381,0.2363,0.2311,0.2285,0.2594,0.2593,0.2593,0.2593,0,0.1991,0.2023,0.1989,0.2014,0.2019,0.1997,0.2028,0.2023,0.2083,0.2118,0.2142,0.2233,0.2316,0.2394,0.2486,0.2491,0.2459,0.2536,0.2389,0.2357,0.2247,0.2228,0.2122,0.2068,0.2489,0.2487,0.2486,0,0.1935,0.1912,0.1925,0.1916,0.1926,0.192,0.1922,0.1978,0.1998,0.2101,0.2118,0.2206,0.227,0.2363,0.2388,0.2446,0.24,0.2331,0.2294,0.2232,0.2202,0.2128,0.2086,0.2163,0.2159,0.2156,0.2154,0,0.1832,0.1841,0.1832,0.1822,0.1818,0.1816,0.184,0.1846,0.1936,0.1985,0.2062,0.2124,0.221,0.2203,0.2255,0.2272,0.219,0.2266,0.2242,0.1982,0.1859,0.1803,0.215,0.2126,0.2128,0.213,0.2132,0.2133,0.1759,0.1734,0.1739,0.1717,0.1717,0.1721,0.1712,0.1765,0.1798,0.1878,0.197,0.2027,0.2051,0.2102,0.2097,0.198,0.2012,0.191,0.1905,0.1848,0.1745,0.2027,0.1959,0.196,0.1962,0.1963,0.1964,0,0.1667,0.1661,0.1638,0.1624,0.1605,0.1637,0.1661,0.1663,0.1699,0.1778,0.1846,0.1846,0.1826,0.183,0.1739,0.1643,0.1581,0.1587,0.1467,0.1458,0.1744,0.1679,0.1496,0.1496,0.1496,0.1496,0.1496,0.1496,0.1623,0.1583,0.1577,0.1527,0.1522,0.1503,0.1512,0.1529,0.1572,0.1579,0.1575,0.1604,0.1626,0.1565,0.1446,0.14,0.1305,0.1193,0.1256,0.1473,0.1503,0.1532,0.1468,0.1243,0.1243,0.0892,0.0889,0.0887]},{"header":{"parameterUnit":"m.s-1","parameterCategory":2,"la1":30.2991,"la2":30.254,"lo1":-89.0895,"lo2":-89.0444,"dy":0.0017,"dx":0.0017,"nx":28,"ny":28,"refTime":"2024-03-30T09:00:00:Z","depth":"0","parameterNumber":3,"parameterNumberName":"V-component_of_CURRENTS"},"data":[0,0,0,0,0,0,0,0,0,0,0,0,0,0,0,0,0,0,0,0,0,0,0,0,0,0,0,0,0,0,0,0,0,0,0,0,0,0,0,0,0,0,0,0,0,0,0,0,0,0,0,0,0,0,0,0,0,0,0.0263,0.0263,0,0.0279,0.028,0.028,0.028,0.028,0.028,0.0279,0.0236,0.0235,0.0234,0,0,0,0,0,0,0,0,0,0,0,0,0,0.0226,0.0226,0.0263,0.0263,0.0264,0.0279,0.028,0.028,0.028,0.028,0.028,0.0279,0.0237,0.0236,0.0234,0,0,0,0,0,0,0,0,0,0,0,0,0,0.0242,0.0227,0.0263,0.0266,0.0266,0.0279,0.028,0.028,0.028,0.028,0.0279,0.0279,0.0237,0.0236,0.0234,0.0231,0,0,0.023,0.0229,0,0,0,0,0,0,0,0,0.0241,0.0243,0.0265,0.0266,0.0266,0.0277,0.0251,0.0261,0.028,0.0275,0.0279,0.0279,0.0245,0.0243,0.0247,0.0229,0.0227,0.023,0.0229,0.0228,0.0228,0,0,0,0,0,0,0,0.024,0.0242,0.0269,0.0265,0.0266,0.0264,0.0266,0.0253,0.026,0.0275,0.0275,0.0277,0.0245,0.0249,0.0246,0.0226,0.023,0.0228,0.0228,0.0227,0.0208,0.0208,0,0,0,0,0,0,0.0239,0.0242,0.0269,0.027,0.0253,0.0265,0.0267,0.0274,0.0261,0.026,0.0278,0.0277,0.0251,0.0248,0.0244,0.025,0.0228,0.0227,0.0226,0.0208,0.0208,0.0208,0,0,0,0,0,0,0.0238,0.0241,0.0268,0.0256,0.0259,0.0266,0.0274,0.0274,0.028,0.0264,0.0261,0.0282,0.0251,0.0246,0.0238,0.0247,0.0226,0.0225,0.0207,0.0208,0.0208,0.0253,0,0,0,0,0,0,0.0237,0.0241,0.0246,0.0256,0.026,0.0282,0.0274,0.0275,0.0282,0.0282,0.0267,0.0263,0.025,0.0241,0.0237,0.0245,0.0224,0.0207,0.0207,0.0208,0.0251,0.0255,0.0258,0,0,0,0,0,0.0236,0.0248,0.0246,0.025,0.0266,0.0283,0.0285,0.0288,0.0282,0.029,0.0279,0.0263,0.0242,0.024,0.0236,0.0243,0.0206,0.0207,0.0208,0.0249,0.0254,0.0258,0,0,0,0,0,0,0.0236,0.025,0.0248,0.0264,0.0273,0.0283,0.029,0.029,0.029,0.0286,0.0268,0.0264,0.026,0.0245,0.0242,0.0239,0.0222,0.0222,0.0255,0.0259,0.0263,0.0283,0.0223,0,0,0,0,0,0.0237,0.0249,0.026,0.0272,0.0277,0.0283,0.0289,0.0291,0.0292,0.0292,0.0284,0.0271,0.026,0.0254,0.0243,0.0241,0.0234,0.0242,0.0246,0.0249,0.0263,0.027,0.0276,0.0211,0.0211,0.0211,0,0,0.024,0.0249,0.0256,0.0273,0.0279,0.0298,0.0286,0.0299,0.0314,0.0286,0.03,0.0283,0.0262,0.0263,0.0259,0.0251,0.026,0.025,0.0253,0.0265,0.0272,0.0278,0.0284,0.0212,0.0212,0.0211,0,0,0.0258,0.026,0.0279,0.0288,0.0301,0.0308,0.0312,0.0324,0.0328,0.0337,0.0319,0.0314,0.0298,0.0293,0.0285,0.0302,0.028,0.0289,0.0325,0.0332,0.0338,0.0343,0.0328,0.0332,0.0292,0.0292,0.0292,0,0.0258,0.0285,0.0286,0.0307,0.0318,0.0314,0.0338,0.0344,0.0353,0.0358,0.0346,0.034,0.0318,0.0326,0.0329,0.0313,0.0303,0.0311,0.0339,0.0344,0.0348,0.0332,0.0335,0.0294,0.0294,0.0294,0.0294,0,0.0296,0.0312,0.0323,0.0349,0.0363,0.038,0.039,0.0401,0.04,0.0405,0.0413,0.0394,0.0394,0.038,0.0357,0.0375,0.0353,0.0343,0.0331,0.0358,0.0338,0.034,0.0297,0.0297,0.0296,0.0295,0,0,0.0305,0.0343,0.0346,0.0365,0.0385,0.0403,0.0425,0.0448,0.047,0.0468,0.0499,0.0474,0.0465,0.0456,0.0431,0.0432,0.0441,0.0401,0.04,0.0391,0.0441,0.0409,0.0408,0.0436,0.0437,0.0438,0.041,0,0.0332,0.038,0.0392,0.0435,0.0459,0.0462,0.0489,0.0505,0.0513,0.0541,0.0524,0.054,0.0494,0.0498,0.0492,0.046,0.0453,0.0449,0.0412,0.0411,0.0384,0.0412,0.0429,0.0404,0.0412,0.0412,0.0413,0,0.0364,0.0394,0.0442,0.0482,0.0494,0.0519,0.056,0.0583,0.0608,0.0616,0.0626,0.0616,0.0617,0.058,0.0546,0.0544,0.0498,0.0468,0.0466,0.0427,0.0385,0.0381,0.0409,0.0347,0.0416,0.0416,0.0416,0,0.0377,0.0425,0.0466,0.048,0.0528,0.0549,0.0574,0.0604,0.0636,0.0669,0.0702,0.0691,0.0701,0.0656,0.0583,0.0569,0.0544,0.0517,0.0443,0.0439,0.0442,0.0437,0.0416,0.0499,0.0499,0.05,0.05,0,0.0403,0.0434,0.0477,0.0501,0.0554,0.0574,0.0631,0.0653,0.0701,0.076,0.0745,0.0789,0.0722,0.0697,0.0619,0.0541,0.057,0.046,0.0439,0.0455,0.0451,0.0389,0.0345,0.0498,0.0499,0.0499,0.0499,0,0.0417,0.0442,0.0492,0.0545,0.0563,0.0602,0.0671,0.0716,0.0754,0.0836,0.0856,0.0865,0.0835,0.0753,0.0678,0.059,0.0479,0.0477,0.0486,0.0468,0.0333,0.0291,0.0247,0.0223,0.0396,0.0395,0.0394,0,0.0436,0.0461,0.0523,0.0556,0.0583,0.0641,0.0688,0.0738,0.0794,0.0889,0.0935,0.0933,0.0952,0.0818,0.0668,0.0533,0.0462,0.0437,0.0414,0.0339,0.0278,0.0255,0.0236,0.0428,0.0427,0.0427,0.0427,0,0.047,0.0484,0.0526,0.0589,0.0641,0.0709,0.0779,0.0833,0.0913,0.0997,0.109,0.1116,0.0995,0.0871,0.0665,0.0565,0.0402,0.0425,0.0362,0.0317,0.0279,0.0242,0.0412,0.0424,0.0424,0.0425,0.0425,0.0425,0.0493,0.0521,0.0566,0.0625,0.0687,0.0769,0.0836,0.0929,0.1041,0.118,0.119,0.1255,0.1057,0.0788,0.0635,0.037,0.0373,0.0298,0.0256,0.0242,0.0217,0.0366,0.0344,0.0344,0.0344,0.0344,0.0344,0,0.0516,0.0545,0.0601,0.0673,0.0739,0.0772,0.0893,0.0979,0.1125,0.1252,0.1345,0.1275,0.1044,0.0782,0.0419,0.0243,0.0193,0.0154,0.014,0.0131,0.0283,0.0284,0.0231,0.0231,0.0231,0.0231,0.0231,0.0231,0.0531,0.0573,0.0595,0.0697,0.0754,0.0865,0.0939,0.1083,0.1196,0.1351,0.1391,0.1384,0.1175,0.058,0.0201,0.0116,0.0011,-0.0017,-0.0073,0.0039,0.005,0.0061,0.0052,-0.0048,-0.0048,-0.0181,-0.0182,-0.0183]}],[{"header":{"parameterUnit":"m.s-1","parameterCategory":2,"la1":30.2991,"la2":30.254,"lo1":-89.0895,"lo2":-89.0444,"dy":0.0017,"dx":0.0017,"nx":28,"ny":28,"refTime":"2024-03-30T09:00:00:Z","depth":"2","parameterNumber":2,"parameterNumberName":"U-component_of_CURRENTS"},"data":[0,0,0,0,0,0,0,0,0,0,0,0,0,0,0,0,0,0,0,0,0,0,0,0,0,0,0,0,0,0,0,0,0,0,0,0,0,0,0,0,0,0,0,0,0,0,0,0,0,0,0,0,0,0,0,0,0,0,0.1747,0.1747,0,0.1751,0.1751,0.1751,0.1757,0.1757,0.1758,0.1758,0.1742,0.1742,0.1741,0,0,0,0,0,0,0,0,0,0,0,0,0,0.174,0.174,0.1747,0.1747,0.1747,0.1751,0.1751,0.1751,0.1757,0.1757,0.1758,0.1758,0.1742,0.1742,0.1741,0,0,0,0,0,0,0,0,0,0,0,0,0,0.1743,0.174,0.1747,0.1751,0.1752,0.1751,0.1751,0.1751,0.1757,0.1757,0.1758,0.1758,0.1743,0.1742,0.1741,0.173,0,0,0.1738,0.1738,0,0,0,0,0,0,0,0,0.1742,0.1743,0.175,0.1751,0.1751,0.1755,0.1743,0.1744,0.1757,0.1754,0.1758,0.1758,0.1745,0.1744,0.1743,0.1729,0.1728,0.1738,0.1738,0.1737,0.1737,0,0,0,0,0,0,0,0.1742,0.1742,0.1747,0.175,0.1751,0.1752,0.1753,0.1743,0.1747,0.1754,0.1755,0.1757,0.1745,0.1744,0.1743,0.1728,0.1738,0.1737,0.1737,0.1736,0.1753,0.1754,0,0,0,0,0,0,0.1744,0.1742,0.1747,0.1748,0.1749,0.1752,0.1753,0.1753,0.1747,0.1747,0.1757,0.1757,0.1745,0.1744,0.1742,0.1767,0.1737,0.1736,0.1736,0.1752,0.1753,0.1754,0,0,0,0,0,0,0.1743,0.1744,0.1747,0.1746,0.1747,0.1752,0.1752,0.1753,0.1768,0.175,0.1749,0.1774,0.1745,0.1743,0.1748,0.1765,0.1736,0.1735,0.1751,0.1753,0.1754,0.1791,0,0,0,0,0,0,0.1743,0.1744,0.1739,0.1746,0.1747,0.1759,0.1752,0.1753,0.1769,0.177,0.1764,0.1762,0.1745,0.175,0.1747,0.1763,0.1734,0.175,0.1752,0.1753,0.1789,0.1794,0.1798,0,0,0,0,0,0.1743,0.1736,0.1739,0.1739,0.1742,0.176,0.176,0.1764,0.177,0.1779,0.1776,0.1763,0.176,0.175,0.1747,0.1762,0.1749,0.1751,0.1753,0.1787,0.1793,0.1798,0,0,0,0,0,0,0.1725,0.1736,0.1739,0.1734,0.1753,0.1761,0.1769,0.1776,0.1781,0.1783,0.177,0.1767,0.178,0.1768,0.1757,0.1774,0.1755,0.1756,0.1781,0.1786,0.1791,0.1801,0.1734,0,0,0,0,0,0.172,0.1729,0.1738,0.1742,0.1751,0.1765,0.1772,0.1778,0.1786,0.179,0.1786,0.1783,0.1784,0.1783,0.1779,0.1784,0.1786,0.1795,0.18,0.1804,0.1811,0.1835,0.1842,0.1762,0.1762,0.1762,0,0,0.1717,0.1726,0.1729,0.1741,0.1757,0.1765,0.1771,0.1791,0.1801,0.1785,0.1799,0.1799,0.179,0.1798,0.1803,0.1791,0.1827,0.1806,0.181,0.1815,0.1838,0.1846,0.1853,0.1763,0.1763,0.1763,0,0,0.1714,0.1726,0.1727,0.1743,0.1765,0.1776,0.1788,0.1805,0.1818,0.1829,0.1825,0.184,0.1833,0.1835,0.1833,0.1863,0.1853,0.1863,0.189,0.1914,0.192,0.1926,0.1936,0.1943,0.1863,0.1863,0.1863,0,0.1708,0.1711,0.1732,0.1738,0.1753,0.1785,0.1791,0.1809,0.1825,0.1834,0.1838,0.1854,0.1851,0.1866,0.1881,0.1873,0.1881,0.1867,0.192,0.1926,0.1931,0.194,0.1947,0.1865,0.1865,0.1864,0.1864,0,0.1692,0.1708,0.172,0.1738,0.1754,0.1776,0.1801,0.182,0.1842,0.1854,0.1884,0.1891,0.19,0.1908,0.1904,0.1943,0.1934,0.1925,0.1905,0.1942,0.1949,0.1955,0.1868,0.1867,0.1866,0.1866,0,0,0.1664,0.1697,0.171,0.1716,0.176,0.1767,0.1799,0.1827,0.1843,0.1874,0.1899,0.1924,0.1941,0.1942,0.1949,0.1977,0.2028,0.1974,0.1975,0.1983,0.2076,0.2012,0.2013,0.203,0.2031,0.2032,0.2064,0,0.1656,0.1661,0.1688,0.1709,0.1715,0.1758,0.1783,0.1812,0.1846,0.1877,0.1914,0.1941,0.195,0.1966,0.1998,0.2023,0.2047,0.202,0.204,0.2041,0.1978,0.2019,0.1839,0.1848,0.207,0.2071,0.2072,0,0.163,0.1644,0.1654,0.169,0.1698,0.1716,0.176,0.1787,0.1843,0.1872,0.1916,0.1946,0.2003,0.2006,0.2072,0.2056,0.2073,0.209,0.2091,0.2024,0.1989,0.1848,0.1851,0.2082,0.2081,0.2081,0.208,0,0.1587,0.1622,0.1631,0.1643,0.1685,0.1702,0.1731,0.1783,0.181,0.1879,0.1908,0.1969,0.2009,0.2054,0.21,0.2092,0.2166,0.215,0.2105,0.21,0.1946,0.1925,0.2193,0.2193,0.2193,0.2193,0.2193,0,0.1561,0.1572,0.1611,0.1618,0.163,0.1671,0.17,0.1737,0.1801,0.1834,0.1908,0.1945,0.2028,0.2077,0.2111,0.213,0.2172,0.2119,0.2109,0.1953,0.1933,0.2134,0.2127,0.2194,0.2194,0.2194,0.2193,0,0.151,0.1542,0.1549,0.1595,0.1609,0.1617,0.1678,0.1695,0.1769,0.182,0.1849,0.194,0.2007,0.207,0.2141,0.213,0.2161,0.2152,0.196,0.1926,0.2075,0.2069,0.2104,0.2103,0.2101,0.21,0.2099,0,0.1481,0.1478,0.1521,0.1526,0.1551,0.1577,0.1598,0.1671,0.1699,0.1808,0.1826,0.1916,0.1959,0.2035,0.2043,0.2075,0.2133,0.1909,0.186,0.2082,0.2069,0.2066,0.2063,0.1671,0.1666,0.1663,0.166,0,0.1425,0.1446,0.1456,0.1472,0.1492,0.1505,0.1547,0.1562,0.1655,0.1697,0.1759,0.1806,0.1884,0.1834,0.1875,0.1868,0.1891,0.1833,0.2121,0.1721,0.1676,0.1662,0.1673,0.1627,0.163,0.1632,0.1634,0.1635,0.1387,0.138,0.1403,0.1406,0.1423,0.143,0.1429,0.1471,0.1501,0.1556,0.1643,0.1662,0.1686,0.1665,0.1621,0.1587,0.1725,0.1635,0.1645,0.166,0.1604,0.1559,0.1477,0.1479,0.1481,0.1483,0.1484,0,0.1325,0.1332,0.1334,0.1339,0.1323,0.1367,0.1387,0.1371,0.1372,0.143,0.147,0.1364,0.1334,0.1372,0.1269,0.1265,0.1248,0.1205,0.1163,0.1196,0.1226,0.1147,0.0899,0.0897,0.0896,0.0894,0,0,0.1299,0.1281,0.1281,0.1242,0.1248,0.1225,0.1225,0.1203,0.122,0.1188,0.1184,0.1302,0.1339,0.1117,0.1071,0.0967,0.1077,0.0925,0.1393,0.1378,0.1406,0.1472,0.1388,0,0,0,0,0]},{"header":{"parameterUnit":"m.s-1","parameterCategory":2,"la1":30.2991,"la2":30.254,"lo1":-89.0895,"lo2":-89.0444,"dy":0.0017,"dx":0.0017,"nx":28,"ny":28,"refTime":"2024-03-30T09:00:00:Z","depth":"2","parameterNumber":3,"parameterNumberName":"V-component_of_CURRENTS"},"data":[0,0,0,0,0,0,0,0,0,0,0,0,0,0,0,0,0,0,0,0,0,0,0,0,0,0,0,0,0,0,0,0,0,0,0,0,0,0,0,0,0,0,0,0,0,0,0,0,0,0,0,0,0,0,0,0,0,0,-0.0022,-0.0022,0,-0.002,-0.002,-0.002,-0.0021,-0.0021,-0.0021,-0.0021,-0.004,-0.004,-0.0041,0,0,0,0,0,0,0,0,0,0,0,0,0,-0.0036,-0.0036,-0.0022,-0.0022,-0.0022,-0.002,-0.002,-0.002,-0.0021,-0.0021,-0.0021,-0.0021,-0.004,-0.004,-0.0041,0,0,0,0,0,0,0,0,0,0,0,0,0,-0.0031,-0.0036,-0.0022,-0.0022,-0.0022,-0.002,-0.002,-0.002,-0.0021,-0.0021,-0.0021,-0.0021,-0.004,-0.004,-0.0041,-0.0044,0,0,-0.0043,-0.0043,0,0,0,0,0,0,0,0,-0.0032,-0.0031,-0.0022,-0.0022,-0.0022,-0.0021,-0.0031,-0.0029,-0.0021,-0.0022,-0.0021,-0.0021,-0.0035,-0.0036,-0.0036,-0.0045,-0.0045,-0.0043,-0.0044,-0.0044,-0.0044,0,0,0,0,0,0,0,-0.0032,-0.0031,-0.0022,-0.0022,-0.0022,-0.0025,-0.0025,-0.0031,-0.0029,-0.0021,-0.0021,-0.0021,-0.0035,-0.0035,-0.0036,-0.0046,-0.0043,-0.0044,-0.0044,-0.0044,-0.0054,-0.0054,0,0,0,0,0,0,-0.0031,-0.0031,-0.0022,-0.0021,-0.0027,-0.0025,-0.0024,-0.0021,-0.0028,-0.0029,-0.0021,-0.0021,-0.0034,-0.0035,-0.0037,-0.003,-0.0044,-0.0044,-0.0045,-0.0054,-0.0054,-0.0054,0,0,0,0,0,0,-0.0032,-0.0031,-0.0022,-0.0026,-0.0025,-0.0024,-0.0021,-0.0021,-0.0019,-0.0027,-0.0029,-0.0018,-0.0034,-0.0036,-0.0039,-0.0031,-0.0045,-0.0045,-0.0055,-0.0054,-0.0054,-0.0024,0,0,0,0,0,0,-0.0032,-0.0031,-0.0029,-0.0026,-0.0025,-0.0015,-0.0021,-0.0021,-0.0018,-0.0018,-0.0026,-0.0027,-0.0034,-0.0038,-0.004,-0.0033,-0.0046,-0.0055,-0.0055,-0.0054,-0.0025,-0.0022,-0.002,0,0,0,0,0,-0.0033,-0.0025,-0.0029,-0.0028,-0.0023,-0.0014,-0.0014,-0.0014,-0.0018,-0.0013,-0.002,-0.0027,-0.0038,-0.0039,-0.0041,-0.0033,-0.0055,-0.0055,-0.0054,-0.0026,-0.0023,-0.002,0,0,0,0,0,0,-0.0027,-0.0024,-0.0029,-0.002,-0.0017,-0.0014,-0.0009,-0.0012,-0.0013,-0.0014,-0.0025,-0.0027,-0.0027,-0.0036,-0.0037,-0.0036,-0.0048,-0.0048,-0.0025,-0.0023,-0.002,-0.0006,-0.0047,0,0,0,0,0,-0.0026,-0.0021,-0.002,-0.0012,-0.0011,-0.0012,-0.0009,-0.0008,-0.0009,-0.0009,-0.0015,-0.0023,-0.0028,-0.003,-0.0036,-0.0035,-0.0041,-0.0033,-0.003,-0.0028,-0.0019,-0.002,-0.0017,-0.0053,-0.0053,-0.0053,0,0,-0.0023,-0.002,-0.0017,-0.0011,-0.001,0.0001,-0.001,-0.0002,0.0008,-0.0012,-0.0004,-0.0016,-0.0027,-0.0025,-0.0025,-0.003,-0.0023,-0.0028,-0.0026,-0.0017,-0.0019,-0.0016,-0.0012,-0.0053,-0.0053,-0.0053,0,0,-0.0006,-0.001,0.0001,0.0005,0.001,0.0012,0.0015,0.0018,0.0018,0.0022,0.001,0.0006,-0.0003,-0.0005,-0.0009,0.0001,-0.0012,-0.0005,0.002,0.0019,0.0022,0.0025,0.0015,0.0017,-0.0003,-0.0003,-0.0003,0,-0.0004,0.0013,0.0006,0.0019,0.0028,0.0018,0.0036,0.0036,0.0037,0.004,0.0029,0.0024,0.001,0.0018,0.0019,0.0008,0.0001,0.0011,0.0023,0.0025,0.0028,0.0017,0.0019,-0.0001,-0.0001,-0.0002,-0.0002,0,0.0022,0.0035,0.0043,0.0056,0.0063,0.0078,0.0077,0.0081,0.0076,0.0075,0.008,0.0063,0.0064,0.0053,0.0038,0.0049,0.0035,0.0025,0.0018,0.0033,0.0021,0.0022,0.0001,0.0,-0.0,-0.0,0,0,0.0039,0.0057,0.0063,0.0076,0.0086,0.0098,0.0109,0.0121,0.0136,0.0125,0.0146,0.0126,0.0117,0.0112,0.0093,0.0087,0.0088,0.0064,0.0063,0.0059,0.0079,0.0066,0.0065,0.0079,0.0079,0.008,0.0061,0,0.0064,0.0096,0.0101,0.0135,0.0151,0.0149,0.0165,0.0171,0.0171,0.0186,0.0168,0.0179,0.014,0.0145,0.0131,0.0103,0.0093,0.0093,0.0061,0.006,0.0051,0.0067,0.0079,0.0063,0.0062,0.0063,0.0063,0,0.0095,0.0113,0.0148,0.0177,0.0185,0.0204,0.0231,0.0245,0.0254,0.0256,0.0257,0.0244,0.0238,0.0204,0.0165,0.0167,0.0127,0.0099,0.0097,0.0078,0.005,0.0049,0.0065,0.0064,0.0064,0.0064,0.0064,0,0.0116,0.015,0.0181,0.0191,0.0218,0.0236,0.0254,0.0267,0.0291,0.0308,0.033,0.0309,0.0316,0.0265,0.0199,0.0185,0.0154,0.0129,0.0079,0.0077,0.0078,0.0076,0.0105,0.0105,0.0105,0.0105,0.0105,0,0.0146,0.0172,0.0195,0.0213,0.0256,0.0265,0.0312,0.0323,0.0355,0.0399,0.0373,0.0402,0.0332,0.0303,0.0229,0.0161,0.0177,0.0091,0.0077,0.0087,0.0086,0.0081,0.0078,0.0104,0.0104,0.0105,0.0105,0,0.0166,0.018,0.0218,0.0252,0.0267,0.0299,0.0355,0.039,0.0414,0.0474,0.0488,0.0479,0.0445,0.0366,0.0289,0.021,0.014,0.011,0.0122,0.011,0.0053,0.0052,0.0055,0.0055,0.0054,0.0054,0.0054,0,0.0178,0.0197,0.0246,0.0274,0.0293,0.0342,0.038,0.0417,0.0461,0.0523,0.0559,0.0549,0.0549,0.0427,0.0299,0.018,0.0153,0.0095,0.0069,0.0065,0.0051,0.0051,0.005,0.0077,0.0077,0.0077,0.0077,0,0.02,0.0216,0.0248,0.0304,0.035,0.0406,0.0466,0.0511,0.0568,0.0622,0.0682,0.0689,0.0588,0.0474,0.0306,0.0216,0.0114,0.0089,0.0097,0.0087,0.0085,0.0071,0.007,0.0077,0.0077,0.0077,0.0077,0.0077,0.0217,0.0241,0.0284,0.0339,0.0394,0.0467,0.0524,0.0594,0.0676,0.0763,0.0762,0.0778,0.0641,0.0437,0.0283,0.0119,0.0127,0.0052,0.0053,0.0054,0.0059,0.0056,0.0043,0.0043,0.0043,0.0042,0.0042,0,0.0235,0.0265,0.0315,0.0385,0.0446,0.0477,0.0579,0.0641,0.0745,0.0812,0.0863,0.074,0.0617,0.0457,0.0222,0.0074,0.0059,0.0016,0.0032,0.0034,0.0035,0.0039,0.0017,0.0017,0.0016,0.0016,0,0,0.0248,0.0291,0.0315,0.0413,0.0469,0.0563,0.0627,0.0722,0.0791,0.0856,0.0868,0.0866,0.0675,0.0494,0.0299,0.0162,0.0127,0.0127,0.0164,0.0208,0.0211,0.0074,0.0085,0,0,0,0,0]}],[{"header":{"parameterUnit":"m.s-1","parameterCategory":2,"la1":30.2991,"la2":30.254,"lo1":-89.0895,"lo2":-89.0444,"dy":0.0017,"dx":0.0017,"nx":28,"ny":28,"refTime":"2024-03-30T09:00:00:Z","depth":"4","parameterNumber":2,"parameterNumberName":"U-component_of_CURRENTS"},"data":[0,0,0,0,0,0,0,0,0,0,0,0,0,0,0,0,0,0,0,0,0,0,0,0,0,0,0,0,0,0,0,0,0,0,0,0,0,0,0,0,0,0,0,0,0,0,0,0,0,0,0,0,0,0,0,0,0,0,0.0879,0.088,0,0.0934,0.0934,0.0934,0.0977,0.0978,0.0978,0.0979,0.1074,0.1076,0.1078,0,0,0,0,0,0,0,0,0,0,0,0,0,0.0811,0.0812,0.0879,0.088,0.0881,0.0933,0.0934,0.0934,0.0977,0.0978,0.0978,0.0979,0.1074,0.1076,0.1078,0,0,0,0,0,0,0,0,0,0,0,0,0,0.0848,0.0812,0.0879,0.091,0.0914,0.0933,0.0934,0.0935,0.0977,0.0978,0.0979,0.0979,0.1073,0.1076,0.1079,0.1077,0,0,0.1088,0.1089,0,0,0,0,0,0,0,0,0.0846,0.085,0.0905,0.0908,0.0912,0.0952,0.0945,0.0985,0.0976,0.095,0.0979,0.098,0.1038,0.1044,0.1048,0.1082,0.1086,0.1088,0.109,0.1091,0.1092,0,0,0,0,0,0,0,0.0843,0.0848,0.0898,0.0906,0.091,0.0922,0.0928,0.0953,0.0987,0.0952,0.0956,0.0966,0.104,0.1045,0.1051,0.1087,0.1088,0.109,0.1092,0.1093,0.1198,0.1199,0,0,0,0,0,0,0.0841,0.0846,0.0896,0.09,0.0884,0.0922,0.0929,0.0936,0.0986,0.0995,0.0965,0.0968,0.1039,0.1047,0.1054,0.1124,0.1091,0.1094,0.1095,0.1197,0.1198,0.1199,0,0,0,0,0,0,0.0839,0.0845,0.0894,0.0876,0.0884,0.0923,0.093,0.0937,0.0969,0.0995,0.1005,0.0994,0.104,0.105,0.1098,0.1125,0.1095,0.1097,0.1196,0.1197,0.1199,0.1219,0,0,0,0,0,0,0.0837,0.0843,0.0856,0.0876,0.0885,0.0923,0.093,0.0937,0.0973,0.0978,0.1023,0.1031,0.1042,0.1094,0.1101,0.1129,0.11,0.1194,0.1196,0.1198,0.1217,0.1221,0.1225,0,0,0,0,0,0.0834,0.0845,0.0856,0.0863,0.0898,0.0924,0.093,0.0958,0.0974,0.099,0.1022,0.1031,0.1112,0.1097,0.1106,0.1134,0.1193,0.1196,0.1198,0.1215,0.122,0.1224,0,0,0,0,0,0,0.0827,0.0851,0.0863,0.0883,0.0911,0.0933,0.0955,0.0972,0.1008,0.1022,0.1044,0.1054,0.1107,0.1117,0.1101,0.117,0.1154,0.1159,0.1165,0.117,0.1173,0.1173,0.1102,0,0,0,0,0,0.0829,0.0843,0.087,0.0889,0.0905,0.0934,0.0953,0.0973,0.1003,0.1021,0.105,0.1084,0.1117,0.1141,0.1168,0.1206,0.1212,0.1231,0.1234,0.1237,0.1243,0.1269,0.1275,0.1207,0.1207,0.1207,0,0,0.0829,0.0848,0.0855,0.0889,0.0913,0.0936,0.0948,0.0985,0.1007,0.1026,0.1072,0.1101,0.1131,0.1173,0.1198,0.1189,0.126,0.124,0.1243,0.1247,0.1272,0.1279,0.1285,0.1209,0.1208,0.1208,0,0,0.0836,0.0859,0.0873,0.0897,0.094,0.0954,0.0971,0.1007,0.1031,0.1073,0.1095,0.1138,0.1186,0.121,0.1229,0.127,0.1278,0.1285,0.1307,0.1332,0.1338,0.1343,0.1354,0.136,0.1288,0.1288,0.1288,0,0.0842,0.0859,0.0883,0.0908,0.0928,0.0965,0.0987,0.1014,0.1061,0.1085,0.1094,0.1175,0.1201,0.1254,0.1271,0.1279,0.1292,0.1286,0.1336,0.1342,0.1346,0.1357,0.1363,0.1289,0.1289,0.1289,0.1288,0,0.0852,0.0877,0.0892,0.0929,0.0953,0.0982,0.1018,0.1052,0.1085,0.1112,0.1177,0.1212,0.1261,0.1278,0.129,0.1344,0.1341,0.1336,0.1322,0.1354,0.1363,0.137,0.1291,0.129,0.129,0.1289,0,0,0.0843,0.0888,0.0898,0.0917,0.0968,0.0987,0.103,0.1075,0.1112,0.1161,0.1208,0.1268,0.1298,0.1321,0.1346,0.1372,0.1416,0.1375,0.1376,0.1381,0.1469,0.1369,0.1365,0.1424,0.1425,0.1426,0.146,0,0.085,0.0884,0.0906,0.0945,0.0966,0.1009,0.1043,0.1091,0.1137,0.1192,0.1243,0.1302,0.1311,0.1349,0.1376,0.1414,0.1434,0.1407,0.1442,0.1443,0.1345,0.137,0.1431,0.1465,0.1466,0.1467,0.1468,0,0.0854,0.0877,0.0908,0.0954,0.0969,0.0999,0.1062,0.1099,0.118,0.122,0.1285,0.133,0.1398,0.1393,0.1462,0.1448,0.1463,0.1478,0.1479,0.1382,0.1353,0.1428,0.1479,0.1478,0.1477,0.1476,0.1476,0,0.0828,0.088,0.0901,0.0919,0.0975,0.1005,0.1043,0.1116,0.1158,0.1251,0.1298,0.137,0.1425,0.1458,0.15,0.1491,0.156,0.1544,0.1462,0.1455,0.1527,0.1521,0.158,0.158,0.158,0.158,0.158,0,0.0817,0.084,0.0898,0.091,0.0951,0.0999,0.1054,0.1105,0.1187,0.1238,0.132,0.1368,0.1447,0.1497,0.1515,0.1507,0.1572,0.1468,0.1458,0.1534,0.1529,0.1531,0.1525,0.1581,0.1581,0.1581,0.1581,0,0.0782,0.0819,0.085,0.0913,0.0939,0.0973,0.1058,0.1097,0.1183,0.1254,0.129,0.1389,0.1446,0.1504,0.156,0.1518,0.1525,0.1504,0.1584,0.1578,0.1398,0.1392,0.1406,0.1403,0.14,0.1398,0.1396,0,0.0758,0.0774,0.0845,0.087,0.0905,0.0964,0.1003,0.1089,0.1128,0.125,0.1275,0.1371,0.1424,0.1422,0.1482,0.1497,0.1481,0.1466,0.1424,0.1391,0.1381,0.138,0.1379,0.1391,0.1391,0.139,0.1389,0,0.0718,0.0757,0.0785,0.0837,0.0884,0.092,0.0983,0.1001,0.1096,0.119,0.123,0.1265,0.1322,0.1357,0.1383,0.1391,0.1464,0.1437,0.1442,0.1403,0.1374,0.1366,0.1368,0.138,0.1381,0.1382,0.1383,0,0.0695,0.0709,0.0758,0.0796,0.0846,0.0859,0.0897,0.0938,0.0984,0.1111,0.1119,0.1219,0.1305,0.1302,0.1326,0.1327,0.1301,0.1247,0.1261,0.1273,0.1213,0.1156,0.1088,0,0,0,0,0,0.067,0.0682,0.0713,0.0743,0.0784,0.0811,0.0875,0.0912,0.1002,0.1,0.1055,0.1102,0.1139,0.1187,0.1162,0.1265,0.1306,0.1227,0.125,0.1327,0.1338,0.128,0,0,0,0,0,0,0.0655,0.0686,0.0695,0.0688,0.0695,0.0728,0.0761,0.082,0.0818,0.0919,0.0947,0.1026,0.1082,0.1146,0.114,0.1154,0.1141,0.1289,0.1285,0.132,0.133,0.1339,0.1284,0,0,0,0,0]},{"header":{"parameterUnit":"m.s-1","parameterCategory":2,"la1":30.2991,"la2":30.254,"lo1":-89.0895,"lo2":-89.0444,"dy":0.0017,"dx":0.0017,"nx":28,"ny":28,"refTime":"2024-03-30T09:00:00:Z","depth":"4","parameterNumber":3,"parameterNumberName":"V-component_of_CURRENTS"},"data":[0,0,0,0,0,0,0,0,0,0,0,0,0,0,0,0,0,0,0,0,0,0,0,0,0,0,0,0,0,0,0,0,0,0,0,0,0,0,0,0,0,0,0,0,0,0,0,0,0,0,0,0,0,0,0,0,0,0,-0.0027,-0.0027,0,-0.0043,-0.0043,-0.0043,-0.0053,-0.0053,-0.0053,-0.0053,-0.008,-0.008,-0.0081,0,0,0,0,0,0,0,0,0,0,0,0,0,-0.0013,-0.0013,-0.0027,-0.0027,-0.0027,-0.0043,-0.0043,-0.0043,-0.0053,-0.0053,-0.0053,-0.0053,-0.0079,-0.008,-0.0081,0,0,0,0,0,0,0,0,0,0,0,0,0,-0.0023,-0.0013,-0.0027,-0.0034,-0.0035,-0.0043,-0.0043,-0.0043,-0.0053,-0.0053,-0.0053,-0.0053,-0.0079,-0.008,-0.0081,-0.0085,0,0,-0.0084,-0.0084,0,0,0,0,0,0,0,0,-0.0022,-0.0023,-0.0033,-0.0034,-0.0035,-0.0046,-0.0048,-0.0058,-0.0053,-0.0046,-0.0053,-0.0053,-0.0069,-0.0071,-0.0074,-0.0087,-0.0088,-0.0084,-0.0085,-0.0085,-0.0085,0,0,0,0,0,0,0,-0.0022,-0.0023,-0.0033,-0.0033,-0.0034,-0.0039,-0.0041,-0.005,-0.0057,-0.0046,-0.0047,-0.0049,-0.007,-0.0073,-0.0074,-0.0088,-0.0084,-0.0085,-0.0086,-0.0086,-0.011,-0.011,0,0,0,0,0,0,-0.0019,-0.0022,-0.0033,-0.0034,-0.0029,-0.004,-0.0041,-0.0042,-0.0057,-0.0059,-0.0049,-0.005,-0.0071,-0.0073,-0.0075,-0.008,-0.0085,-0.0086,-0.0087,-0.011,-0.011,-0.011,0,0,0,0,0,0,-0.0019,-0.002,-0.0032,-0.0028,-0.003,-0.004,-0.0041,-0.0042,-0.0047,-0.0059,-0.0061,-0.0052,-0.0071,-0.0074,-0.0084,-0.0081,-0.0086,-0.0087,-0.0109,-0.011,-0.011,-0.0089,0,0,0,0,0,0,-0.0019,-0.002,-0.0021,-0.0028,-0.003,-0.0035,-0.0041,-0.0043,-0.0048,-0.0049,-0.0062,-0.0064,-0.0071,-0.0083,-0.0085,-0.0082,-0.0088,-0.0109,-0.0109,-0.011,-0.009,-0.0089,-0.0088,0,0,0,0,0,-0.0018,-0.0017,-0.0021,-0.0022,-0.0031,-0.0035,-0.0037,-0.0044,-0.0048,-0.0048,-0.0059,-0.0064,-0.0085,-0.0084,-0.0087,-0.0084,-0.0109,-0.0109,-0.011,-0.009,-0.0089,-0.0088,0,0,0,0,0,0,-0.001,-0.0018,-0.0022,-0.0024,-0.0029,-0.0037,-0.0039,-0.0044,-0.0052,-0.0053,-0.0066,-0.0069,-0.0076,-0.0084,-0.0083,-0.0091,-0.0098,-0.0098,-0.0082,-0.0081,-0.008,-0.0071,-0.0089,0,0,0,0,0,-0.0009,-0.0011,-0.0019,-0.002,-0.0023,-0.0031,-0.0035,-0.0038,-0.0046,-0.005,-0.006,-0.007,-0.0079,-0.0083,-0.0092,-0.0098,-0.0104,-0.0098,-0.0097,-0.0096,-0.0091,-0.0099,-0.0098,-0.011,-0.011,-0.011,0,0,-0.0006,-0.0011,-0.0012,-0.0018,-0.0024,-0.0022,-0.0033,-0.0036,-0.0035,-0.0052,-0.0055,-0.0067,-0.008,-0.0085,-0.0089,-0.0091,-0.0096,-0.0096,-0.0095,-0.009,-0.0099,-0.0098,-0.0097,-0.011,-0.011,-0.011,0,0,0.0002,-0.0005,-0.0003,-0.0006,-0.0012,-0.0016,-0.0017,-0.0025,-0.003,-0.0035,-0.0047,-0.0056,-0.007,-0.0076,-0.0081,-0.008,-0.009,-0.0085,-0.0071,-0.0079,-0.0078,-0.0077,-0.0083,-0.0083,-0.0084,-0.0084,-0.0084,0,0.0005,0.0009,-0.0002,0.0001,0.0002,-0.0012,-0.0005,-0.0012,-0.0022,-0.0025,-0.0033,-0.005,-0.0063,-0.0067,-0.0067,-0.0076,-0.0083,-0.0074,-0.0077,-0.0076,-0.0076,-0.0082,-0.0082,-0.0083,-0.0083,-0.0083,-0.0083,0,0.0018,0.0021,0.0022,0.0023,0.0023,0.0026,0.0017,0.0013,0.0005,-0.0002,-0.001,-0.0028,-0.0036,-0.0044,-0.0056,-0.0058,-0.0066,-0.0075,-0.0078,-0.0073,-0.0081,-0.0081,-0.0081,-0.0082,-0.0082,-0.0082,0,0,0.0027,0.003,0.0033,0.0039,0.0036,0.0039,0.0039,0.0037,0.004,0.0024,0.003,0.0007,-0.0004,-0.0011,-0.0027,-0.0038,-0.0044,-0.0055,-0.0055,-0.0057,-0.0062,-0.006,-0.006,-0.0055,-0.0055,-0.0055,-0.0069,0,0.0041,0.0055,0.0054,0.0072,0.0078,0.007,0.0073,0.0068,0.006,0.006,0.0039,0.0038,0.0009,0.0009,-0.0008,-0.0033,-0.0044,-0.0039,-0.007,-0.0071,-0.0067,-0.006,-0.0055,-0.0069,-0.0069,-0.0069,-0.0069,0,0.0056,0.0064,0.0083,0.0097,0.0099,0.0108,0.0114,0.0117,0.0108,0.0104,0.0095,0.0079,0.0064,0.0041,0.0,0.0004,-0.0027,-0.005,-0.0051,-0.0055,-0.007,-0.0076,-0.007,-0.007,-0.007,-0.007,-0.007,0,0.0071,0.0087,0.0105,0.0109,0.0118,0.0127,0.0134,0.013,0.014,0.0137,0.0149,0.0118,0.0119,0.0072,0.0021,0.0011,-0.0023,-0.0041,-0.0068,-0.0068,-0.0075,-0.0076,-0.0068,-0.0068,-0.0068,-0.0068,-0.0068,0,0.0087,0.0101,0.0113,0.0123,0.0146,0.0147,0.0171,0.017,0.0182,0.0206,0.0177,0.0191,0.0127,0.0099,0.0039,-0.0011,-0.0008,-0.0061,-0.007,-0.0067,-0.0066,-0.0075,-0.0076,-0.0068,-0.0068,-0.0068,-0.0068,0,0.0097,0.0105,0.0126,0.0144,0.0153,0.0169,0.0203,0.0221,0.0229,0.0264,0.0271,0.0252,0.0218,0.0151,0.0083,0.0027,-0.0031,-0.005,-0.0033,-0.0042,-0.0077,-0.0077,-0.0082,-0.0082,-0.0082,-0.0082,-0.0082,0,0.0101,0.0112,0.0141,0.016,0.017,0.0199,0.0222,0.0241,0.0268,0.0303,0.0324,0.0309,0.0286,0.0198,0.0114,0.0008,-0.0013,-0.0049,-0.0075,-0.0069,-0.0078,-0.0077,-0.0077,-0.0082,-0.0082,-0.0081,-0.0081,0,0.0107,0.0118,0.0137,0.0175,0.0206,0.0244,0.0281,0.0308,0.0341,0.0352,0.0379,0.0337,0.0303,0.0214,0.0138,0.0055,-0.0032,-0.0049,-0.005,-0.0075,-0.0069,-0.0078,-0.0077,-0.0081,-0.0081,-0.0081,-0.0081,0,0.0111,0.0125,0.0153,0.0191,0.0233,0.0283,0.03,0.0341,0.0371,0.0408,0.0416,0.0377,0.0351,0.024,0.0166,0.009,0.0059,0.0015,0.001,0.0009,0.0031,0.0051,0.0074,0,0,0,0,0,0.0114,0.0135,0.0168,0.0214,0.026,0.0289,0.034,0.0357,0.0393,0.0419,0.0421,0.039,0.0297,0.0253,0.018,0.0147,0.0033,0.0055,-0.0023,-0.0081,-0.0081,-0.0071,0,0,0,0,0,0,0.0117,0.0145,0.0167,0.0233,0.027,0.0325,0.0362,0.0385,0.0397,0.042,0.0373,0.0358,0.0265,0.0345,0.0177,0.0154,0.0089,0.0013,0.0011,-0.0081,-0.0081,-0.0081,-0.0071,0,0,0,0,0]}]]